Scottsboro, AL

8:59 PM CST on December 04, 2016 (GMT -0600)
Scottsboro

Weather History for K4A6 - May, 2013

Change the Weather History Date:

Friday, May 17, 2013

  Actual Average (KHSV) Record (KHSV)
Temperature  
Mean Temperature 68 °F 71 °F  
Max Temperature 75 °F 82 °F 95 °F (1944)
Min Temperature 62 °F 60 °F 42 °F (1956)
Degree Days  
Heating Degree Days 0 1  
Month to date heating degree days 22  
Since 1 July heating degree days 2996  
Cooling Degree Days 4 6  
Month to date cooling degree days 79  
Year to date cooling degree days 151  
Growing Degree Days 18 (Base 50)    
Moisture  
Dew Point 62 °F    
Average Humidity 83    
Maximum Humidity 100    
Minimum Humidity 61    
Precipitation  
Precipitation 0.56 in 0.17 in 2.17 in (1955)
Month to date precipitation 2.95  
Year to date precipitation 22.21  
Snow  
Snow 0.00 in - - ()
Month to date snowfall  
Since 1 July snowfall  
Snow Depth -    
Sea Level Pressure  
Sea Level Pressure 30.05 in    
Wind  
Wind Speed 1 mph (SSW)    
Max Wind Speed 8 mph    
Max Gust Speed -    
Visibility 9 miles    
Events Rain    
T = Trace of Precipitation, MM = Missing Value Source: NWS Daily Summary

Daily Weather History Graph

Daily Weather History Graph

Search for Another Location

Airport or City:

Trip Planner

Search our weather history database for the weather conditions in past years. The results will help you decide how hot, cold, wet, or windy it might be!

Date:

Astronomy

May. 17, 2013 Rise Set
Actual Time 5:39 AM CDT 7:41 PM CDT
Civil Twilight 5:11 AM CDT 8:09 PM CDT
Nautical Twilight 4:37 AM CDT 8:44 PM CDT
Astronomical Twilight 4:00 AM CDT 9:21 PM CDT
Moon 12:04 PM CDT (5/17) 12:40 AM CDT (5/17)
Length of Visible Light 14h 58m
Length of Day
14h 02m
Waxing Crescent, 45% of the Moon is Illuminated
May 17
Waxing Crescent
May 17
First Quarter
May 24
Full
May 31
Last Quarter
Jun 8
New

Hourly Weather History & Observations

Time (CDT) Temp. Dew Point Humidity Pressure Visibility Wind Dir Wind Speed Gust Speed Precip Events Conditions
12:15 AM 62.6 °F 59.0 °F 88% 30.03 in 10.0 mi Calm Calm - N/A   Clear
12:35 AM 62.6 °F 57.2 °F 82% 30.03 in 10.0 mi Calm Calm - N/A   Partly Cloudy
12:55 AM 62.6 °F 57.2 °F 82% 30.03 in 10.0 mi Calm Calm - N/A   Partly Cloudy
1:15 AM 62.6 °F 59.0 °F 88% 30.02 in 10.0 mi Calm Calm - N/A   Mostly Cloudy
1:35 AM 62.6 °F 59.0 °F 88% 30.02 in 10.0 mi Calm Calm - N/A   Overcast
1:55 AM 64.4 °F 59.0 °F 83% 30.03 in 10.0 mi Calm Calm - N/A   Overcast
2:15 AM 64.4 °F 59.0 °F 83% 30.03 in 10.0 mi Calm Calm - N/A   Overcast
2:35 AM 64.4 °F 59.0 °F 83% 30.03 in 10.0 mi Calm Calm - N/A   Overcast
2:55 AM 62.6 °F 59.0 °F 88% 30.03 in 10.0 mi Calm Calm - N/A   Overcast
3:15 AM 64.4 °F 57.2 °F 77% 30.03 in 10.0 mi Calm Calm - N/A   Overcast
3:35 AM 64.4 °F 57.2 °F 77% 30.04 in 10.0 mi Calm Calm - N/A   Overcast
3:55 AM 64.4 °F 57.2 °F 77% 30.04 in 10.0 mi Calm Calm - N/A   Overcast
4:15 AM 64.4 °F 59.0 °F 83% 30.04 in 10.0 mi Calm Calm - N/A   Overcast
4:35 AM 64.4 °F 59.0 °F 83% 30.04 in 10.0 mi Calm Calm - N/A   Overcast
4:55 AM 62.6 °F 59.0 °F 88% 30.04 in 10.0 mi Calm Calm - N/A   Overcast
5:15 AM 62.6 °F 59.0 °F 88% 30.05 in 10.0 mi Calm Calm - N/A   Overcast
5:35 AM 62.6 °F 59.0 °F 88% 30.05 in 10.0 mi Calm Calm - N/A   Overcast
5:55 AM 62.6 °F 59.0 °F 88% 30.05 in 10.0 mi Calm Calm - N/A   Overcast
6:15 AM 62.6 °F 59.0 °F 88% 30.06 in 10.0 mi Calm Calm - N/A   Overcast
6:35 AM 62.6 °F 59.0 °F 88% 30.07 in 10.0 mi Calm Calm - N/A   Overcast
6:55 AM 62.6 °F 59.0 °F 88% 30.07 in 10.0 mi Calm Calm - N/A   Overcast
7:15 AM 64.4 °F 59.0 °F 83% 30.08 in 10.0 mi Calm Calm - N/A   Overcast
7:35 AM 64.4 °F 59.0 °F 83% 30.07 in 10.0 mi Calm Calm - N/A   Mostly Cloudy
7:55 AM 64.4 °F 59.0 °F 83% 30.08 in 10.0 mi Calm Calm - N/A   Mostly Cloudy
8:15 AM 66.2 °F 59.0 °F 78% 30.08 in 10.0 mi NNE 3.5 mph - N/A   Overcast
8:35 AM 66.2 °F 59.0 °F 78% 30.09 in 10.0 mi Calm Calm - N/A   Overcast
8:55 AM 68.0 °F 60.8 °F 78% 30.09 in 10.0 mi Calm Calm - N/A   Overcast
9:15 AM 68.0 °F 62.6 °F 83% 30.09 in 10.0 mi Calm Calm - N/A   Overcast
9:35 AM 68.0 °F 62.6 °F 83% 30.09 in 10.0 mi Calm Calm - N/A   Overcast
9:55 AM 71.6 °F 62.6 °F 73% 30.09 in 10.0 mi WSW 3.5 mph - N/A   Overcast
10:15 AM 71.6 °F 64.4 °F 78% 30.09 in 10.0 mi West 4.6 mph - N/A   Mostly Cloudy
10:35 AM 73.4 °F 64.4 °F 73% 30.09 in 10.0 mi Calm Calm - N/A   Mostly Cloudy
10:55 AM 73.4 °F 64.4 °F 73% 30.09 in 10.0 mi Calm Calm - N/A   Scattered Clouds
11:15 AM 73.4 °F 64.4 °F 73% 30.09 in 10.0 mi Calm Calm - N/A   Mostly Cloudy
11:35 AM 73.4 °F 64.4 °F 73% 30.09 in 10.0 mi WSW 4.6 mph - N/A   Scattered Clouds
11:55 AM 73.4 °F 64.4 °F 73% 30.09 in 10.0 mi West 4.6 mph - N/A   Mostly Cloudy
12:15 PM 73.4 °F 64.4 °F 73% 30.08 in 10.0 mi SW 4.6 mph - N/A   Mostly Cloudy
12:35 PM 73.4 °F 64.4 °F 73% 30.07 in 10.0 mi SW 3.5 mph - N/A   Scattered Clouds
12:55 PM 73.4 °F 64.4 °F 73% 30.06 in 10.0 mi Calm Calm - N/A   Partly Cloudy
1:15 PM 75.2 °F 64.4 °F 69% 30.07 in 10.0 mi West 3.5 mph - N/A   Scattered Clouds
1:35 PM 75.2 °F 64.4 °F 69% 30.06 in 10.0 mi Calm Calm - N/A   Mostly Cloudy
1:55 PM 75.2 °F 64.4 °F 69% 30.07 in 10.0 mi SW 4.6 mph - N/A   Mostly Cloudy
2:15 PM 75.2 °F 64.4 °F 69% 30.06 in 10.0 mi South 3.5 mph - N/A   Mostly Cloudy
2:35 PM 75.2 °F 64.4 °F 69% 30.05 in 10.0 mi South 4.6 mph - N/A   Scattered Clouds
2:55 PM 75.2 °F 64.4 °F 69% 30.04 in 10.0 mi South 6.9 mph - N/A   Scattered Clouds
3:15 PM 75.2 °F 62.6 °F 65% 30.03 in 10.0 mi South 5.8 mph - N/A   Scattered Clouds
3:35 PM 75.2 °F 60.8 °F 61% 30.03 in 10.0 mi SSW 8.1 mph - N/A Rain Light Rain
3:55 PM 73.4 °F 62.6 °F 69% 30.02 in 10.0 mi South 4.6 mph - N/A Rain Light Rain
4:15 PM 73.4 °F 62.6 °F 69% 30.02 in 10.0 mi SSW 3.5 mph - N/A   Scattered Clouds
4:35 PM 73.4 °F 62.6 °F 69% 30.02 in 10.0 mi Calm Calm - N/A   Mostly Cloudy
4:55 PM 73.4 °F 62.6 °F 69% 30.03 in 10.0 mi Calm Calm - N/A   Mostly Cloudy
5:15 PM 71.6 °F 66.2 °F 83% 30.02 in 5.0 mi Calm Calm - N/A Rain Light Rain
5:35 PM 68.0 °F 66.2 °F 94% 30.03 in 5.0 mi Calm Calm - 0.01 in Rain Light Rain
5:55 PM 68.0 °F 68.0 °F 100% 30.03 in 3.0 mi Calm Calm - 0.04 in Rain Light Rain
6:15 PM 68.0 °F 68.0 °F 100% 30.03 in 3.0 mi NE 3.5 mph - 0.03 in Rain Light Rain
6:35 PM 68.0 °F 66.2 °F 94% 30.02 in 5.0 mi Calm Calm - 0.05 in Rain Light Rain
6:55 PM 68.0 °F 66.2 °F 94% 30.02 in 5.0 mi Calm Calm - 0.07 in Rain Light Rain
7:15 PM 68.0 °F 64.4 °F 88% 30.01 in 8.0 mi ESE 3.5 mph - N/A Rain Light Rain
7:35 PM 68.0 °F 66.2 °F 94% 30.03 in 8.0 mi SW 4.6 mph - N/A   Overcast
7:55 PM 66.2 °F 64.4 °F 94% 30.02 in 3.0 mi Calm Calm - 0.06 in Rain Rain
8:15 PM 66.2 °F 64.4 °F 94% 30.02 in 5.0 mi Calm Calm - 0.01 in Rain Rain
8:35 PM 66.2 °F 64.4 °F 94% 30.03 in 3.0 mi Calm Calm - 0.09 in Rain Rain
8:55 PM 66.2 °F 64.4 °F 94% 30.01 in 1.8 mi SE 4.6 mph - 0.32 in Rain Heavy Rain
9:15 PM 66.2 °F 64.4 °F 94% 30.03 in 3.0 mi Calm Calm - 0.05 in Rain Light Rain
9:35 PM 66.2 °F 64.4 °F 94% 30.04 in 9.0 mi SSE 4.6 mph - 0.06 in   Overcast
9:55 PM 66.2 °F 64.4 °F 94% 30.04 in 10.0 mi South 5.8 mph - 0.06 in   Overcast
10:15 PM 66.2 °F 64.4 °F 94% 30.04 in 10.0 mi Calm Calm - N/A   Overcast
10:35 PM 66.2 °F 66.2 °F 100% 30.04 in 10.0 mi Calm Calm - N/A   Mostly Cloudy
10:55 PM 66.2 °F 66.2 °F 100% 30.04 in 10.0 mi NNW 3.5 mph - N/A   Overcast
11:15 PM 66.2 °F 66.2 °F 100% 30.04 in 9.0 mi Calm Calm - 0.01 in Rain Light Rain
11:35 PM 66.2 °F 66.2 °F 100% 30.04 in 9.0 mi Calm Calm - 0.01 in   Overcast
11:55 PM 66.2 °F 66.2 °F 100% 30.04 in 9.0 mi Calm Calm - 0.01 in   Overcast